Regional Weather Roundup
Issued by NWS

Home | Current Version | Previous Version | Graphics & Text | Print | Product List | Glossary On
Versions: 1 2 3 4 5 6 7 8 9 10 11 12 13 14 15 16 17 18 19 20 21 22 23 24 25 26 27 28 29 30 31 32 33 34 35 36 37 38 39 40 41 42 43 44 45 46 47 48 49 50
000
ASUS45 KPSR 070400
RWRAZ

ARIZONA HOURLY REGIONAL WEATHER ROUNDUP
NATIONAL WEATHER SERVICE PHOENIX AZ
900 PM MST MON JUL 06 2015

NOTE: FAIR INDICATES FEW OR NO CLOUDS BELOW 12,000 FEET WITH NO
SIGNIFICANT WEATHER AND/OR OBSTRUCTIONS TO VISIBILITY.

AZZ001>003-036-070500-
NORTHWEST ARIZONA

CITY           SKY/WX    TMP DP  RH WIND       PRES   REMARKS
KINGMAN        CLOUDY    75  62  64 NE7       30.03S
$$

AZZ004>008-015-016-018-070500-
NORTH CENTRAL ARIZONA

CITY           SKY/WX    TMP DP  RH WIND       PRES   REMARKS
GRAND CANYON   PTCLDY    57  48  72 CALM      30.27R
WILLIAMS       CLEAR     61  52  72 CALM      30.34R
PRESCOTT       PTCLDY    71  54  54 SW5       30.16R
FLAGSTAFF      NOT AVBL
PAYSON         CLOUDY    75  54  46 N5        30.16S
PAGE           CLOUDY    74  54  49 CALM      30.09F
$$

AZZ009>014-017-070500-
NORTHEAST ARIZONA

CITY           SKY/WX    TMP DP  RH WIND       PRES   REMARKS
WINSLOW        NOT AVBL
SAINT JOHNS    MOCLDY    76  49  38 SW9       30.15R
WINDOW ROCK    CLOUDY    64  53  67 CALM      30.25R
SHOW LOW       CLOUDY    68  50  52 N6        30.25R
$$

AZZ023-070500-
GREATER PHOENIX AREA

CITY           SKY/WX    TMP DP  RH WIND       PRES   REMARKS
PHOENIX        CLOUDY    97  55  24 NW9       29.81R
LUKE AFB       MOCLDY    93  54  26 W12       29.81S
DEER VALLEY    CLOUDY    93  57  29 N5        29.84S
SCOTTSDALE     CLOUDY    95  56  26 VRB3      29.86R
MESA-GATEWAY   PTCLDY    91  63  38 SW8       29.86S
CHANDLER       MOCLDY    93  63  36 S12       29.84R
$$

AZZ027-028-070500-
SOUTHWEST MARICOPA COUNTY AND PINAL COUNTY

CITY           SKY/WX    TMP DP  RH WIND       PRES   REMARKS
CASA GRANDE    PTCLDY    90  63  40 CALM      29.85F
$$

AZZ503-504-507>509-070500-
SOUTHEAST ARIZONA

CITY           SKY/WX    TMP DP  RH WIND       PRES   REMARKS
TUCSON         MOCLDY    88  61  40 SW5       29.99R
NOGALES        MOCLDY    72  63  73 CALM      30.09R
SIERRA VISTA   PTCLDY    72  62  71 W10       30.14R
SAFFORD        PTCLDY    85  60  42 NW13      29.95R
$$

AZZ020-021-025-026-031-070500-
SOUTHWEST ARIZONA

CITY           SKY/WX    TMP DP  RH WIND       PRES   REMARKS
YUMA           NOT AVBL
$$

CAZ031-033-041-043-047-048-061-070500-
SOUTHERN CALIFORNIA

CITY           SKY/WX    TMP DP  RH WIND       PRES   REMARKS
DOWNTOWN L.A.  CLOUDY    65  59  81 VRB5      29.98R
L.A. AIRPORT   CLOUDY    63  60  90 W8        29.99S
SAN DIEGO      CLOUDY    68  59  73 NW6       30.01S
BURBANK        CLEAR     65  58  78 S8        29.98R
ONTARIO        CLEAR     68  58  70 W10       29.97R
RIVERSIDE        N/A    N/A N/A N/A MISG      29.97R
PALM SPRINGS   PTCLDY    94  58  29 NW17G29   29.80R
EL CENTRO NAS  PTCLDY    94  46  19 SE8       29.76S
IMPERIAL       CLEAR     97  46  17 S12       29.74R
BLYTHE         CLEAR    101  60  25 SW9       29.76R HX 101
$$

NVZ020-UTZ003-070500-
SOUTHERN NEVADA-UTAH

CITY           SKY/WX    TMP DP  RH WIND       PRES   REMARKS
LAS VEGAS      CLOUDY    80  64  58 SW13      29.91F
SALT LAKE CITY PTCLDY    76  55  48 SE6       30.04S
$$

NMZ009-TXZ055-070500-
NEW MEXICO-WEST TEXAS

CITY           SKY/WX    TMP DP  RH WIND       PRES   REMARKS
ALBUQUERQUE    CLOUDY    71  58  63 E24G32    30.12R
EL PASO        PTCLDY    92  51  24 W15G24    29.96R
$$


........................KEY........................
SKY/WX - SKY CONDITION/WEATHER
TMP    - TEMPERATURE IN FAHRENHEIT
DP     - DEW POINT IN FAHRENHEIT
RH     - RELATIVE HUMIDITY IN PERCENT
WIND   - DIRECTION AND SPEED IN MILES PER HOUR (MPH)
VRB    - VARIABLE WIND DIRECTION
PRES   - MEAN SEA LEVEL PRESSURE IN INCHES OF MERCURY
         F - FALLING PRESSURE   R - RISING PRESSURE
         S - STEADY PRESSURE
VSB    - VISIBILITY IN MILES
HX     - HEAT INDEX IN FAHRENHEIT
WCI    - WIND CHILL INDEX IN FAHRENHEIT
TC     - TEMPERATURE IN CELSIUS WHICH IS ALSO KNOWN AS
         TEMPERATURE IN CENTIGRADE
AFB    - AIR FORCE BASE
         LUKE AFB IS LUKE AIR FORCE BASE
         DAVIS-MONTHAN IS DAVIS-MONTHAN AIR FORCE BASE
NAS    - NAVAL AIR STATION
         EL CENTRO NAS IS EL CENTRO NAVAL AIR STATION
N/A    - NOT AVAILABLE



USA.gov is the U.S. government's official web portal to all federal, state and local government web resources and services.